Time,TemperatureF,DewpointF,PressureIn,WindDirection,WindDirectionDegrees,WindSpeedMPH,WindSpeedGustMPH,Humidity,HourlyPrecipIn,Conditions,Clouds,dailyrainin,SoftwareType,DateUTC
2013-06-14 00:00:00,79.4,74.8,29.85,SW,229,3.0,5.0,86,0.00,,,0.00,WeatherTracker,2013-06-14 05:00:00,
2013-06-14 00:10:00,79.4,75.2,29.87,SW,225,2.0,5.0,87,0.00,,,0.00,WeatherTracker,2013-06-14 05:10:00,
2013-06-14 00:20:00,79.3,75.1,29.85,WSW,246,4.0,6.0,87,0.00,,,0.00,WeatherTracker,2013-06-14 05:20:00,
2013-06-14 00:30:00,79.3,75.1,29.85,WSW,250,4.0,7.0,87,0.00,,,0.00,WeatherTracker,2013-06-14 05:30:00,
2013-06-14 00:35:00,79.3,75.1,29.84,SW,220,4.0,7.0,87,0.00,,,0.00,WeatherTracker,2013-06-14 05:35:00,
2013-06-14 00:45:00,79.3,75.1,29.85,SW,226,2.0,6.0,87,0.00,,,0.00,WeatherTracker,2013-06-14 05:45:00,
2013-06-14 00:50:00,79.2,75.0,29.85,WSW,250,5.0,6.0,87,0.00,,,0.00,WeatherTracker,2013-06-14 05:50:00,
2013-06-14 00:55:00,79.1,74.9,29.85,West,266,2.0,7.0,87,0.00,,,0.00,WeatherTracker,2013-06-14 05:55:00,
2013-06-14 01:05:00,79.1,75.2,29.87,WSW,256,0.0,5.0,88,0.00,,,0.00,WeatherTracker,2013-06-14 06:05:00,
2013-06-14 01:10:00,79.1,75.2,29.86,WSW,256,3.0,3.0,88,0.00,,,0.00,WeatherTracker,2013-06-14 06:10:00,
2013-06-14 01:15:00,79.1,75.6,29.87,WSW,256,1.0,4.0,89,0.01,,,0.01,WeatherTracker,2013-06-14 06:15:00,
2013-06-14 01:20:00,79.0,75.5,29.88,NNE,32,4.0,4.0,89,0.03,,,0.03,WeatherTracker,2013-06-14 06:20:00,
2013-06-14 01:25:00,78.7,75.5,29.88,NNE,22,4.0,6.0,90,0.07,,,0.07,WeatherTracker,2013-06-14 06:25:00,
2013-06-14 01:30:00,77.9,75.1,29.88,NE,42,4.0,13.0,91,0.09,,,0.09,WeatherTracker,2013-06-14 06:30:00,
2013-06-14 01:40:00,76.6,74.4,29.88,NNE,32,11.0,12.0,93,0.15,,,0.15,WeatherTracker,2013-06-14 06:40:00,
2013-06-14 01:45:00,75.4,72.9,29.88,North,5,8.0,18.0,92,0.28,,,0.28,WeatherTracker,2013-06-14 06:45:00,
2013-06-14 01:50:00,74.3,72.1,29.86,NE,38,3.0,18.0,93,0.37,,,0.37,WeatherTracker,2013-06-14 06:50:00,
2013-06-14 02:00:00,73.5,71.7,29.86,North,9,2.0,6.0,94,0.41,,,0.41,WeatherTracker,2013-06-14 07:00:00,
2013-06-14 02:05:00,73.3,71.5,29.86,WNW,300,3.0,5.0,94,0.41,,,0.41,WeatherTracker,2013-06-14 07:05:00,
2013-06-14 02:10:00,73.1,71.3,29.87,WNW,293,4.0,5.0,94,0.42,,,0.42,WeatherTracker,2013-06-14 07:10:00,
2013-06-14 02:15:00,73.2,71.7,29.86,West,277,3.0,6.0,95,0.41,,,0.42,WeatherTracker,2013-06-14 07:15:00,
2013-06-14 02:20:00,73.3,71.8,29.84,West,277,0.0,6.0,95,0.39,,,0.42,WeatherTracker,2013-06-14 07:20:00,
2013-06-14 02:30:00,73.7,72.5,29.84,West,266,8.0,8.0,96,0.33,,,0.42,WeatherTracker,2013-06-14 07:30:00,
2013-06-14 02:35:00,73.9,72.7,29.84,WNW,300,6.0,11.0,96,0.31,,,0.42,WeatherTracker,2013-06-14 07:35:00,
2013-06-14 02:45:00,73.4,71.9,29.84,West,267,4.0,11.0,95,0.14,,,0.42,WeatherTracker,2013-06-14 07:45:00,
2013-06-14 02:50:00,73.2,71.7,29.84,West,271,6.0,12.0,95,0.05,,,0.42,WeatherTracker,2013-06-14 07:50:00,
2013-06-14 03:00:00,72.5,70.7,29.82,West,272,7.0,11.0,94,0.01,,,0.42,WeatherTracker,2013-06-14 08:00:00,
2013-06-14 03:10:00,72.3,70.5,29.82,WSW,247,7.0,13.0,94,0.00,,,0.42,WeatherTracker,2013-06-14 08:10:00,
2013-06-14 03:15:00,72.2,70.1,29.82,WSW,244,3.0,9.0,93,0.00,,,0.42,WeatherTracker,2013-06-14 08:15:00,
2013-06-14 03:25:00,72.0,69.9,29.81,SW,236,2.0,8.0,93,0.00,,,0.42,WeatherTracker,2013-06-14 08:25:00,
2013-06-14 03:30:00,72.0,69.9,29.82,West,263,3.0,8.0,93,0.00,,,0.42,WeatherTracker,2013-06-14 08:30:00,
2013-06-14 03:40:00,71.7,69.6,29.82,WNW,297,3.0,6.0,93,0.00,,,0.42,WeatherTracker,2013-06-14 08:40:00,
2013-06-14 03:50:00,71.8,69.7,29.82,West,275,2.0,8.0,93,0.00,,,0.42,WeatherTracker,2013-06-14 08:50:00,
2013-06-14 04:00:00,72.0,69.9,29.83,WNW,283,3.0,8.0,93,0.00,,,0.42,WeatherTracker,2013-06-14 09:00:00,
2013-06-14 04:10:00,72.0,70.2,29.82,West,265,2.0,4.0,94,0.00,,,0.42,WeatherTracker,2013-06-14 09:10:00,
2013-06-14 04:15:00,72.0,70.2,29.82,SW,227,1.0,9.0,94,0.00,,,0.42,WeatherTracker,2013-06-14 09:15:00,
2013-06-14 04:20:00,72.0,70.2,29.81,West,261,2.0,9.0,94,0.00,,,0.42,WeatherTracker,2013-06-14 09:20:00,
2013-06-14 04:25:00,72.0,70.2,29.81,West,269,3.0,5.0,94,0.00,,,0.42,WeatherTracker,2013-06-14 09:25:00,
2013-06-14 04:35:00,72.0,70.2,29.81,WSW,257,0.0,6.0,94,0.00,,,0.42,WeatherTracker,2013-06-14 09:35:00,
2013-06-14 04:40:00,71.9,70.1,29.81,WSW,257,0.0,3.0,94,0.00,,,0.42,WeatherTracker,2013-06-14 09:40:00,
2013-06-14 04:45:00,71.8,70.0,29.81,WSW,257,0.0,3.0,94,0.00,,,0.42,WeatherTracker,2013-06-14 09:45:00,
2013-06-14 04:55:00,71.7,69.9,29.81,WSW,257,0.0,0.0,94,0.00,,,0.42,WeatherTracker,2013-06-14 09:55:00,
2013-06-14 05:00:00,71.6,70.1,29.81,WSW,257,0.0,0.0,95,0.00,,,0.42,WeatherTracker,2013-06-14 10:00:00,
2013-06-14 05:10:00,71.7,70.2,29.81,WSW,257,0.0,0.0,95,0.00,,,0.42,WeatherTracker,2013-06-14 10:10:00,
2013-06-14 05:15:00,71.6,70.1,29.81,WSW,257,0.0,0.0,95,0.00,,,0.42,WeatherTracker,2013-06-14 10:15:00,
2013-06-14 05:20:00,71.5,70.0,29.81,WSW,257,1.0,3.0,95,0.00,,,0.42,WeatherTracker,2013-06-14 10:20:00,
2013-06-14 05:30:00,71.6,70.1,29.81,NNW,333,2.0,4.0,95,0.00,,,0.42,WeatherTracker,2013-06-14 10:30:00,
2013-06-14 05:35:00,71.6,70.1,29.81,NNW,340,3.0,5.0,95,0.00,,,0.42,WeatherTracker,2013-06-14 10:35:00,
2013-06-14 05:45:00,71.6,70.4,29.81,NNW,340,3.0,4.0,96,0.00,,,0.42,WeatherTracker,2013-06-14 10:45:00,
2013-06-14 05:50:00,71.7,70.5,29.82,NNW,340,2.0,4.0,96,0.00,,,0.42,WeatherTracker,2013-06-14 10:50:00,
2013-06-14 05:55:00,71.7,70.5,29.82,NNW,340,1.0,4.0,96,0.00,,,0.42,WeatherTracker,2013-06-14 10:55:00,
2013-06-14 06:00:00,71.7,70.5,29.82,NNW,340,0.0,4.0,96,0.00,,,0.42,WeatherTracker,2013-06-14 11:00:00,
2013-06-14 06:05:00,71.7,70.5,29.83,NNW,331,0.0,1.0,96,0.00,,,0.42,WeatherTracker,2013-06-14 11:05:00,
2013-06-14 06:10:00,71.8,70.6,29.83,SW,228,0.0,1.0,96,0.00,,,0.42,WeatherTracker,2013-06-14 11:10:00,
2013-06-14 06:20:00,72.1,70.9,29.83,SW,228,0.0,0.0,96,0.00,,,0.42,WeatherTracker,2013-06-14 11:20:00,
2013-06-14 06:25:00,72.2,71.0,29.83,SW,228,0.0,0.0,96,0.00,,,0.42,WeatherTracker,2013-06-14 11:25:00,
2013-06-14 06:35:00,72.5,71.3,29.83,SW,235,0.0,0.0,96,0.00,,,0.42,WeatherTracker,2013-06-14 11:35:00,
2013-06-14 06:40:00,72.6,71.4,29.83,SW,235,0.0,0.0,96,0.00,,,0.42,WeatherTracker,2013-06-14 11:40:00,
2013-06-14 06:50:00,73.0,72.1,29.83,SW,235,2.0,0.0,97,0.00,,,0.42,WeatherTracker,2013-06-14 11:50:00,
2013-06-14 07:00:00,73.5,72.3,29.84,NW,318,1.0,4.0,96,0.00,,,0.42,WeatherTracker,2013-06-14 12:00:00,
2013-06-14 07:05:00,73.7,72.8,29.84,NW,321,4.0,4.0,97,0.00,,,0.42,WeatherTracker,2013-06-14 12:05:00,
2013-06-14 07:10:00,73.9,73.0,29.85,WNW,302,1.0,4.0,97,0.00,,,0.42,WeatherTracker,2013-06-14 12:10:00,
2013-06-14 07:20:00,74.2,73.0,29.85,NNW,339,1.0,4.0,96,0.00,,,0.42,WeatherTracker,2013-06-14 12:20:00,
2013-06-14 07:25:00,74.2,73.0,29.85,NNW,340,3.0,4.0,96,0.00,,,0.42,WeatherTracker,2013-06-14 12:25:00,
2013-06-14 07:35:00,74.3,73.1,29.86,NW,321,3.0,6.0,96,0.00,,,0.42,WeatherTracker,2013-06-14 12:35:00,
2013-06-14 07:40:00,74.3,73.4,29.86,NW,324,2.0,7.0,97,0.00,,,0.42,WeatherTracker,2013-06-14 12:40:00,
2013-06-14 07:45:00,74.5,73.6,29.86,NNE,13,3.0,7.0,97,0.00,,,0.42,WeatherTracker,2013-06-14 12:45:00,
2013-06-14 07:50:00,74.6,73.7,29.86,NNW,345,3.0,6.0,97,0.00,,,0.42,WeatherTracker,2013-06-14 12:50:00,
2013-06-14 08:00:00,74.8,73.6,29.87,North,360,3.0,5.0,96,0.00,,,0.42,WeatherTracker,2013-06-14 13:00:00,
2013-06-14 08:05:00,74.9,73.7,29.87,NW,318,4.0,5.0,96,0.00,,,0.42,WeatherTracker,2013-06-14 13:05:00,
2013-06-14 08:15:00,75.2,74.3,29.87,NNW,342,3.0,4.0,97,0.00,,,0.42,WeatherTracker,2013-06-14 13:15:00,
2013-06-14 08:25:00,75.5,74.3,29.87,North,355,4.0,6.0,96,0.00,,,0.42,WeatherTracker,2013-06-14 13:25:00,
2013-06-14 08:30:00,75.5,74.3,29.87,North,351,3.0,9.0,96,0.00,,,0.42,WeatherTracker,2013-06-14 13:30:00,
2013-06-14 08:35:00,75.5,74.3,29.87,North,5,5.0,9.0,96,0.00,,,0.42,WeatherTracker,2013-06-14 13:35:00,
2013-06-14 08:45:00,75.8,74.6,29.88,NNW,338,2.0,6.0,96,0.00,,,0.42,WeatherTracker,2013-06-14 13:45:00,
2013-06-14 08:50:00,75.9,74.7,29.88,NNW,338,3.0,5.0,96,0.00,,,0.42,WeatherTracker,2013-06-14 13:50:00,
2013-06-14 09:00:00,76.1,74.9,29.88,North,349,5.0,5.0,96,0.00,,,0.42,WeatherTracker,2013-06-14 14:00:00,
2013-06-14 09:05:00,76.2,75.0,29.88,North,355,0.0,6.0,96,0.00,,,0.42,WeatherTracker,2013-06-14 14:05:00,
2013-06-14 09:15:00,76.4,75.2,29.88,NNW,347,2.0,6.0,96,0.00,,,0.42,WeatherTracker,2013-06-14 14:15:00,
2013-06-14 09:20:00,76.4,75.2,29.88,North,5,5.0,5.0,96,0.00,,,0.42,WeatherTracker,2013-06-14 14:20:00,
2013-06-14 09:25:00,76.4,75.2,29.89,NNE,12,2.0,5.0,96,0.00,,,0.42,WeatherTracker,2013-06-14 14:25:00,
2013-06-14 09:35:00,76.8,75.3,29.88,NNW,346,4.0,6.0,95,0.00,,,0.42,WeatherTracker,2013-06-14 14:35:00,
2013-06-14 09:45:00,77.1,75.6,29.89,NNE,17,2.0,6.0,95,0.00,,,0.42,WeatherTracker,2013-06-14 14:45:00,
2013-06-14 09:50:00,77.3,75.8,29.89,NNE,12,3.0,7.0,95,0.00,,,0.42,WeatherTracker,2013-06-14 14:50:00,
2013-06-14 09:55:00,77.6,75.7,29.89,North,5,5.0,8.0,94,0.00,,,0.42,WeatherTracker,2013-06-14 14:55:00,
2013-06-14 10:05:00,78.4,75.9,29.89,NE,34,6.0,9.0,92,0.00,,,0.42,WeatherTracker,2013-06-14 15:05:00,
2013-06-14 10:10:00,78.6,75.4,29.89,NNE,28,6.0,10.0,90,0.00,,,0.42,WeatherTracker,2013-06-14 15:10:00,
2013-06-14 10:20:00,79.2,75.7,29.89,NE,41,5.0,10.0,89,0.00,,,0.42,WeatherTracker,2013-06-14 15:20:00,
2013-06-14 10:25:00,79.8,75.9,29.89,NE,41,3.0,9.0,88,0.00,,,0.42,WeatherTracker,2013-06-14 15:25:00,
2013-06-14 10:30:00,80.5,75.2,29.89,ENE,63,8.0,11.0,84,0.00,,,0.42,WeatherTracker,2013-06-14 15:30:00,
2013-06-14 10:40:00,81.1,75.4,29.88,NNE,24,2.0,14.0,83,0.00,,,0.42,WeatherTracker,2013-06-14 15:40:00,
2013-06-14 10:45:00,81.7,75.7,29.88,ENE,65,6.0,9.0,82,0.00,,,0.42,WeatherTracker,2013-06-14 15:45:00,
2013-06-14 10:50:00,81.9,75.5,29.88,NNE,32,6.0,8.0,81,0.00,,,0.42,WeatherTracker,2013-06-14 15:50:00,
2013-06-14 11:00:00,83.0,76.5,29.88,NNE,33,7.0,7.0,81,0.00,,,0.42,WeatherTracker,2013-06-14 16:00:00,
2013-06-14 11:10:00,83.5,75.9,29.88,North,5,4.0,9.0,78,0.00,,,0.42,WeatherTracker,2013-06-14 16:10:00,
2013-06-14 11:15:00,83.6,75.6,29.88,NE,36,3.0,9.0,77,0.00,,,0.42,WeatherTracker,2013-06-14 16:15:00,
2013-06-14 11:25:00,83.7,76.5,29.88,NE,49,6.0,7.0,79,0.00,,,0.42,WeatherTracker,2013-06-14 16:25:00,
2013-06-14 11:30:00,84.1,75.3,29.88,NE,48,5.0,10.0,75,0.00,,,0.42,WeatherTracker,2013-06-14 16:30:00,
2013-06-14 11:35:00,84.1,75.7,29.88,NNW,345,4.0,10.0,76,0.00,,,0.42,WeatherTracker,2013-06-14 16:35:00,
2013-06-14 11:45:00,84.5,76.9,29.88,East,81,6.0,8.0,78,0.00,,,0.42,WeatherTracker,2013-06-14 16:45:00,
2013-06-14 11:55:00,84.5,76.1,29.87,ENE,65,0.0,8.0,76,0.00,,,0.42,WeatherTracker,2013-06-14 16:55:00,
2013-06-14 12:00:00,84.8,76.0,29.87,NNE,15,4.0,6.0,75,0.00,,,0.42,WeatherTracker,2013-06-14 17:00:00,
2013-06-14 12:05:00,84.7,75.9,29.87,NNE,28,3.0,6.0,75,0.00,,,0.42,WeatherTracker,2013-06-14 17:05:00,
2013-06-14 12:10:00,84.4,76.0,29.87,NNW,344,2.0,5.0,76,0.00,,,0.42,WeatherTracker,2013-06-14 17:10:00,
2013-06-14 12:15:00,85.3,76.5,29.87,NNE,24,3.0,5.0,75,0.00,,,0.42,WeatherTracker,2013-06-14 17:15:00,
2013-06-14 12:20:00,86.0,77.1,29.87,NNE,17,3.0,5.0,75,0.00,,,0.42,WeatherTracker,2013-06-14 17:20:00,
2013-06-14 12:30:00,85.8,75.7,29.88,ENE,74,4.0,8.0,72,0.00,,,0.42,WeatherTracker,2013-06-14 17:30:00,
2013-06-14 12:40:00,86.1,76.0,29.87,North,9,3.0,7.0,72,0.00,,,0.42,WeatherTracker,2013-06-14 17:40:00,
2013-06-14 12:50:00,85.9,75.8,29.87,North,5,4.0,7.0,72,0.00,,,0.42,WeatherTracker,2013-06-14 17:50:00,
2013-06-14 13:00:00,86.4,75.9,29.87,NNW,347,5.0,7.0,71,0.00,,,0.42,WeatherTracker,2013-06-14 18:00:00,
2013-06-14 13:05:00,86.1,75.6,29.87,ENE,63,5.0,8.0,71,0.00,,,0.42,WeatherTracker,2013-06-14 18:05:00,
2013-06-14 13:10:00,86.6,76.0,29.86,NNE,19,4.0,10.0,71,0.00,,,0.42,WeatherTracker,2013-06-14 18:10:00,
2013-06-14 13:20:00,87.1,74.3,29.87,NNE,16,2.0,9.0,66,0.00,,,0.42,WeatherTracker,2013-06-14 18:20:00,
2013-06-14 13:30:00,87.0,74.7,29.86,ENE,71,3.0,8.0,67,0.00,,,0.42,WeatherTracker,2013-06-14 18:30:00,
2013-06-14 13:40:00,87.8,75.9,29.86,NNW,344,4.0,7.0,68,0.00,,,0.42,WeatherTracker,2013-06-14 18:40:00,
2013-06-14 13:45:00,87.5,75.2,29.86,North,9,5.0,8.0,67,0.00,,,0.42,WeatherTracker,2013-06-14 18:45:00,
2013-06-14 13:50:00,86.8,75.4,29.86,North,11,4.0,8.0,69,0.00,,,0.42,WeatherTracker,2013-06-14 18:50:00,
2013-06-14 14:00:00,87.0,75.6,29.86,North,5,7.0,7.0,69,0.00,,,0.42,WeatherTracker,2013-06-14 19:00:00,
2013-06-14 14:05:00,87.7,74.9,29.85,NNE,31,0.0,7.0,66,0.00,,,0.42,WeatherTracker,2013-06-14 19:05:00,
2013-06-14 14:10:00,88.4,76.0,29.85,North,360,5.0,7.0,67,0.00,,,0.42,WeatherTracker,2013-06-14 19:10:00,
2013-06-14 14:15:00,88.4,75.6,29.85,NE,44,6.0,10.0,66,0.00,,,0.42,WeatherTracker,2013-06-14 19:15:00,
2013-06-14 14:25:00,87.5,73.8,29.85,NE,50,4.0,11.0,64,0.00,,,0.42,WeatherTracker,2013-06-14 19:25:00,
2013-06-14 14:30:00,87.5,75.2,29.85,NNE,26,4.0,10.0,67,0.00,,,0.42,WeatherTracker,2013-06-14 19:30:00,
2013-06-14 14:35:00,87.4,74.6,29.85,North,9,3.0,7.0,66,0.00,,,0.42,WeatherTracker,2013-06-14 19:35:00,
2013-06-14 14:45:00,86.2,73.9,29.85,North,360,2.0,10.0,67,0.00,,,0.42,WeatherTracker,2013-06-14 19:45:00,
2013-06-14 14:55:00,87.5,75.2,29.85,NNE,33,9.0,10.0,67,0.00,,,0.42,WeatherTracker,2013-06-14 19:55:00,
2013-06-14 15:00:00,87.7,75.4,29.86,North,5,4.0,10.0,67,0.00,,,0.42,WeatherTracker,2013-06-14 20:00:00,
2013-06-14 15:05:00,88.4,74.6,29.86,NNE,23,6.0,9.0,64,0.00,,,0.42,WeatherTracker,2013-06-14 20:05:00,
2013-06-14 15:10:00,88.2,74.0,29.86,North,5,3.0,10.0,63,0.00,,,0.42,WeatherTracker,2013-06-14 20:10:00,
2013-06-14 15:15:00,88.1,73.9,29.85,NNE,13,2.0,11.0,63,0.00,,,0.42,WeatherTracker,2013-06-14 20:15:00,
2013-06-14 15:20:00,88.0,74.7,29.85,ENE,67,1.0,11.0,65,0.00,,,0.42,WeatherTracker,2013-06-14 20:20:00,
2013-06-14 15:30:00,87.9,72.2,29.86,ENE,59,3.0,9.0,60,0.00,,,0.42,WeatherTracker,2013-06-14 20:30:00,
2013-06-14 15:35:00,88.1,73.4,29.86,NNE,19,4.0,8.0,62,0.00,,,0.42,WeatherTracker,2013-06-14 20:35:00,
2013-06-14 15:40:00,87.7,72.5,29.86,NE,35,5.0,8.0,61,0.00,,,0.42,WeatherTracker,2013-06-14 20:40:00,
2013-06-14 15:50:00,86.9,73.2,29.85,NE,44,4.0,7.0,64,0.00,,,0.42,WeatherTracker,2013-06-14 20:50:00,
2013-06-14 15:55:00,87.1,72.5,29.86,ENE,70,8.0,11.0,62,0.00,,,0.42,WeatherTracker,2013-06-14 20:55:00,
2013-06-14 16:00:00,87.2,72.1,29.86,NNE,19,6.0,11.0,61,0.00,,,0.42,WeatherTracker,2013-06-14 21:00:00,
2013-06-14 16:05:00,87.2,72.1,29.86,NE,36,5.0,11.0,61,0.00,,,0.42,WeatherTracker,2013-06-14 21:05:00,
2013-06-14 16:15:00,87.4,70.3,29.86,NNW,348,4.0,8.0,57,0.00,,,0.42,WeatherTracker,2013-06-14 21:15:00,
2013-06-14 16:20:00,87.8,71.7,29.86,NE,36,5.0,10.0,59,0.00,,,0.42,WeatherTracker,2013-06-14 21:20:00,
2013-06-14 16:25:00,87.9,71.2,29.86,NE,49,4.0,10.0,58,0.00,,,0.42,WeatherTracker,2013-06-14 21:25:00,
2013-06-14 16:35:00,87.5,73.3,29.86,NE,37,4.0,8.0,63,0.00,,,0.42,WeatherTracker,2013-06-14 21:35:00,
2013-06-14 16:40:00,87.1,72.9,29.86,North,360,4.0,8.0,63,0.00,,,0.42,WeatherTracker,2013-06-14 21:40:00,
2013-06-14 16:50:00,85.9,71.8,29.86,NNE,24,2.0,6.0,63,0.00,,,0.42,WeatherTracker,2013-06-14 21:50:00,
2013-06-14 16:55:00,85.9,72.3,29.86,NE,42,6.0,6.0,64,0.00,,,0.42,WeatherTracker,2013-06-14 21:55:00,
2013-06-14 17:00:00,86.1,72.0,29.85,NNE,14,3.0,7.0,63,0.00,,,0.42,WeatherTracker,2013-06-14 22:00:00,
2013-06-14 17:10:00,86.6,72.5,29.85,NNE,15,4.0,7.0,63,0.00,,,0.42,WeatherTracker,2013-06-14 22:10:00,
2013-06-14 17:15:00,86.9,71.3,29.85,North,11,4.0,9.0,60,0.00,,,0.42,WeatherTracker,2013-06-14 22:15:00,
2013-06-14 17:20:00,87.1,71.0,29.85,NNW,342,5.0,9.0,59,0.00,,,0.42,WeatherTracker,2013-06-14 22:20:00,
2013-06-14 17:25:00,87.2,72.6,29.85,NW,321,4.0,8.0,62,0.00,,,0.42,WeatherTracker,2013-06-14 22:25:00,
2013-06-14 17:30:00,87.4,71.8,29.85,North,9,4.0,10.0,60,0.00,,,0.42,WeatherTracker,2013-06-14 22:30:00,
2013-06-14 17:35:00,87.3,71.7,29.85,North,355,4.0,10.0,60,0.00,,,0.42,WeatherTracker,2013-06-14 22:35:00,
2013-06-14 17:45:00,87.0,72.4,29.85,NNE,24,5.0,8.0,62,0.00,,,0.42,WeatherTracker,2013-06-14 22:45:00,
2013-06-14 17:50:00,87.0,71.4,29.85,North,360,2.0,7.0,60,0.00,,,0.42,WeatherTracker,2013-06-14 22:50:00,
2013-06-14 17:55:00,87.0,70.4,29.85,NNE,14,4.0,6.0,58,0.00,,,0.42,WeatherTracker,2013-06-14 22:55:00,
2013-06-14 18:00:00,87.0,70.9,29.86,NNE,12,4.0,6.0,59,0.00,,,0.42,WeatherTracker,2013-06-14 23:00:00,
2013-06-14 18:10:00,86.8,70.7,29.85,NNE,31,3.0,8.0,59,0.00,,,0.42,WeatherTracker,2013-06-14 23:10:00,
2013-06-14 18:15:00,86.6,71.0,29.85,NNE,26,3.0,7.0,60,0.00,,,0.42,WeatherTracker,2013-06-14 23:15:00,
2013-06-14 18:25:00,86.4,70.8,29.86,NNE,18,3.0,5.0,60,0.00,,,0.42,WeatherTracker,2013-06-14 23:25:00,
2013-06-14 18:35:00,86.2,71.6,29.86,North,5,3.0,5.0,62,0.00,,,0.42,WeatherTracker,2013-06-14 23:35:00,
2013-06-14 18:45:00,86.0,71.0,29.86,NNW,346,3.0,6.0,61,0.00,,,0.42,WeatherTracker,2013-06-14 23:45:00,
2013-06-14 18:50:00,85.9,71.3,29.86,NNE,14,1.0,4.0,62,0.00,,,0.42,WeatherTracker,2013-06-14 23:50:00,
2013-06-14 18:55:00,85.8,71.2,29.87,NNE,14,2.0,4.0,62,0.00,,,0.42,WeatherTracker,2013-06-14 23:55:00,
2013-06-14 19:05:00,85.6,72.9,29.87,NNE,14,0.0,2.0,66,0.00,,,0.42,WeatherTracker,2013-06-15 00:05:00,
2013-06-14 19:10:00,85.4,72.3,29.87,NNE,14,0.0,2.0,65,0.00,,,0.42,WeatherTracker,2013-06-15 00:10:00,
2013-06-14 19:20:00,84.8,71.7,29.87,NNE,17,2.0,2.0,65,0.00,,,0.42,WeatherTracker,2013-06-15 00:20:00,
2013-06-14 19:30:00,83.8,71.2,29.88,NNE,17,1.0,3.0,66,0.00,,,0.42,WeatherTracker,2013-06-15 00:30:00,
2013-06-14 19:40:00,82.9,71.2,29.88,NNE,17,0.0,2.0,68,0.00,,,0.42,WeatherTracker,2013-06-15 00:40:00,
2013-06-14 19:45:00,82.7,71.0,29.88,NNE,17,0.0,0.0,68,0.00,,,0.42,WeatherTracker,2013-06-15 00:45:00,
2013-06-14 19:55:00,82.1,70.9,29.88,NNE,17,0.0,0.0,69,0.00,,,0.42,WeatherTracker,2013-06-15 00:55:00,
2013-06-14 20:00:00,81.7,70.9,29.88,NNE,17,0.0,0.0,70,0.00,,,0.42,WeatherTracker,2013-06-15 01:00:00,
2013-06-14 20:10:00,80.9,70.6,29.88,NNE,17,0.0,0.0,71,0.00,,,0.42,WeatherTracker,2013-06-15 01:10:00,
2013-06-14 20:15:00,80.5,70.2,29.88,NNE,17,0.0,0.0,71,0.00,,,0.42,WeatherTracker,2013-06-15 01:15:00,
2013-06-14 20:20:00,80.1,70.2,29.89,NNE,17,0.0,0.0,72,0.00,,,0.42,WeatherTracker,2013-06-15 01:20:00,
2013-06-14 20:25:00,79.8,70.4,29.89,NNE,17,0.0,0.0,73,0.00,,,0.42,WeatherTracker,2013-06-15 01:25:00,
2013-06-14 20:35:00,78.9,69.5,29.89,NNE,17,0.0,0.0,73,0.00,,,0.42,WeatherTracker,2013-06-15 01:35:00,
2013-06-14 20:45:00,78.2,69.6,29.89,NNE,17,0.0,0.0,75,0.00,,,0.42,WeatherTracker,2013-06-15 01:45:00,
2013-06-14 20:50:00,77.8,69.2,29.89,NNE,17,0.0,0.0,75,0.00,,,0.42,WeatherTracker,2013-06-15 01:50:00,
2013-06-14 21:00:00,77.3,69.1,29.89,NNE,17,0.0,0.0,76,0.00,,,0.42,WeatherTracker,2013-06-15 02:00:00,
2013-06-14 21:10:00,76.8,69.0,29.90,NNE,17,0.0,0.0,77,0.00,,,0.42,WeatherTracker,2013-06-15 02:10:00,
2013-06-14 21:15:00,76.6,68.8,29.90,NNE,17,0.0,0.0,77,0.00,,,0.42,WeatherTracker,2013-06-15 02:15:00,
2013-06-14 21:25:00,76.3,70.0,29.90,NNE,17,0.0,0.0,81,0.00,,,0.42,WeatherTracker,2013-06-15 02:25:00,
2013-06-14 21:30:00,76.1,70.2,29.90,NNE,17,0.0,0.0,82,0.00,,,0.42,WeatherTracker,2013-06-15 02:30:00,
2013-06-14 21:35:00,76.0,70.8,29.91,NNE,17,0.0,0.0,84,0.00,,,0.42,WeatherTracker,2013-06-15 02:35:00,
2013-06-14 21:40:00,75.7,70.5,29.91,NNE,17,0.0,0.0,84,0.00,,,0.42,WeatherTracker,2013-06-15 02:40:00,
2013-06-14 21:50:00,75.3,69.8,29.92,NNE,17,0.0,0.0,83,0.00,,,0.42,WeatherTracker,2013-06-15 02:50:00,
2013-06-14 21:55:00,75.1,69.6,29.92,NNE,17,0.0,0.0,83,0.00,,,0.42,WeatherTracker,2013-06-15 02:55:00,
2013-06-14 22:00:00,74.9,69.0,29.92,NNE,17,0.0,0.0,82,0.00,,,0.42,WeatherTracker,2013-06-15 03:00:00,
2013-06-14 22:10:00,74.5,68.6,29.92,NNE,17,0.0,0.0,82,0.00,,,0.42,WeatherTracker,2013-06-15 03:10:00,
2013-06-14 22:15:00,74.4,68.5,29.93,NNE,17,0.0,2.0,82,0.00,,,0.42,WeatherTracker,2013-06-15 03:15:00,
2013-06-14 22:25:00,74.4,68.5,29.93,NNE,17,0.0,1.0,82,0.00,,,0.42,WeatherTracker,2013-06-15 03:25:00,
2013-06-14 22:30:00,74.4,68.5,29.93,NNE,17,0.0,0.0,82,0.00,,,0.42,WeatherTracker,2013-06-15 03:30:00,
2013-06-14 22:40:00,74.4,68.2,29.93,NNE,17,0.0,0.0,81,0.00,,,0.42,WeatherTracker,2013-06-15 03:40:00,
2013-06-14 22:50:00,74.2,68.3,29.94,NNE,17,0.0,0.0,82,0.00,,,0.42,WeatherTracker,2013-06-15 03:50:00,
2013-06-14 22:55:00,74.2,68.3,29.94,NNE,17,0.0,0.0,82,0.00,,,0.42,WeatherTracker,2013-06-15 03:55:00,
2013-06-14 23:05:00,73.9,68.0,29.94,NNE,17,0.0,0.0,82,0.00,,,0.42,WeatherTracker,2013-06-15 04:05:00,
2013-06-14 23:10:00,73.6,67.8,29.94,NNE,17,0.0,0.0,82,0.00,,,0.42,WeatherTracker,2013-06-15 04:10:00,
2013-06-14 23:15:00,73.5,67.7,29.94,NNE,17,0.0,0.0,82,0.00,,,0.42,WeatherTracker,2013-06-15 04:15:00,
2013-06-14 23:20:00,73.3,67.8,29.94,NNE,17,0.0,0.0,83,0.00,,,0.42,WeatherTracker,2013-06-15 04:20:00,
2013-06-14 23:25:00,73.2,67.7,29.94,NNE,17,0.0,0.0,83,0.00,,,0.42,WeatherTracker,2013-06-15 04:25:00,
2013-06-14 23:35:00,73.0,67.5,29.94,NNE,17,0.0,0.0,83,0.00,,,0.42,WeatherTracker,2013-06-15 04:35:00,
2013-06-14 23:40:00,72.9,67.4,29.94,NNE,17,0.0,0.0,83,0.00,,,0.42,WeatherTracker,2013-06-15 04:40:00,
2013-06-14 23:50:00,72.8,67.0,29.94,NNE,17,0.0,0.0,82,0.00,,,0.42,WeatherTracker,2013-06-15 04:50:00,
2013-06-14 23:55:00,72.8,67.0,29.94,NNE,17,0.0,3.0,82,0.00,,,0.42,WeatherTracker,2013-06-15 04:55:00,